VOE81UT LEMD-LEAS

Flight info

Callsign VOE81UT
Flight time 0h 51m
Altitude 30000
Route ZMR DCT VETAN DCT OMESI/N0373F240 M30 XONDA
Aircraft A320/M-SDFGHIJ1RWY/LB1

Departure

Time 2026-05-08 15:25
Airport Adolfo Suárez Madrid–Barajas Airport (LEMD)

Arrival

Time 2026-05-08 16:16
Airport Asturias Airport (LEAS)
Time Latitude Longitude Altitude Speed Heading
2026-05-08 15:06 40.47276 -3.57138 1989 ft 0 kts 139°
2026-05-08 15:11 40.47277 -3.57138 2017 ft 2 kts 139°
2026-05-08 15:12 40.47281 -3.57143 1989 ft 0 kts 139°
2026-05-08 15:12 40.47284 -3.57147 1991 ft 2 kts 139°
2026-05-08 15:12 40.47297 -3.57161 1989 ft 2 kts 117°
2026-05-08 15:12 40.47299 -3.57182 1990 ft 2 kts 63°
2026-05-08 15:13 40.47288 -3.57196 1989 ft 3 kts
2026-05-08 15:13 40.47281 -3.57198 1990 ft 0 kts
2026-05-08 15:16 40.47281 -3.57197 1990 ft 0 kts
2026-05-08 15:16 40.47288 -3.57196 1989 ft 6 kts
2026-05-08 15:17 40.47340 -3.57187 1991 ft 3 kts
2026-05-08 15:17 40.47363 -3.57183 1991 ft 5 kts
2026-05-08 15:17 40.47430 -3.57171 1991 ft 15 kts
2026-05-08 15:17 40.47534 -3.57203 1995 ft 9 kts 347°
2026-05-08 15:18 40.47605 -3.57139 1997 ft 16 kts 28°
2026-05-08 15:18 40.47701 -3.57189 1999 ft 19 kts 323°
2026-05-08 15:18 40.47831 -3.57318 2002 ft 25 kts 321°
2026-05-08 15:18 40.47939 -3.57430 2004 ft 20 kts 322°
2026-05-08 15:19 40.48072 -3.57569 2000 ft 27 kts 321°
2026-05-08 15:19 40.48204 -3.57700 1996 ft 22 kts 322°
2026-05-08 15:19 40.48332 -3.57829 1992 ft 24 kts 323°
2026-05-08 15:19 40.48467 -3.57945 1995 ft 21 kts 328°
2026-05-08 15:20 40.48569 -3.58028 2002 ft 16 kts 329°
2026-05-08 15:20 40.48692 -3.58049 2003 ft 21 kts
2026-05-08 15:20 40.48761 -3.57949 1999 ft 17 kts 93°
2026-05-08 15:20 40.48760 -3.57784 1993 ft 20 kts 91°
2026-05-08 15:21 40.48798 -3.57621 1990 ft 18 kts 18°
2026-05-08 15:21 40.48919 -3.57618 1990 ft 17 kts 359°
2026-05-08 15:21 40.49029 -3.57620 1990 ft 15 kts 359°
2026-05-08 15:21 40.49131 -3.57620 1989 ft 14 kts
2026-05-08 15:22 40.49201 -3.57554 1987 ft 13 kts 60°
2026-05-08 15:22 40.49258 -3.57462 1984 ft 13 kts 20°
2026-05-08 15:22 40.49330 -3.57451 1983 ft 2 kts 359°
2026-05-08 15:22 40.49338 -3.57451 1983 ft 0 kts 359°
2026-05-08 15:24 40.49365 -3.57452 1983 ft 15 kts 359°
2026-05-08 15:24 40.49717 -3.57454 1985 ft 87 kts
2026-05-08 15:25 40.50535 -3.57460 1993 ft 145 kts 360°
2026-05-08 15:25 40.51696 -3.57463 2146 ft 176 kts
2026-05-08 15:25 40.52920 -3.57460 2792 ft 176 kts 359°
2026-05-08 15:25 40.54152 -3.57469 3466 ft 178 kts 358°
2026-05-08 15:26 40.55404 -3.57580 3919 ft 191 kts 343°
2026-05-08 15:26 40.56536 -3.58553 4178 ft 203 kts 300°
2026-05-08 15:26 40.57210 -3.60276 4469 ft 224 kts 296°
2026-05-08 15:26 40.58208 -3.61927 5060 ft 236 kts 311°
2026-05-08 15:27 40.59456 -3.63345 5884 ft 238 kts 319°
2026-05-08 15:27 40.60791 -3.64651 6709 ft 238 kts 320°
2026-05-08 15:27 40.62120 -3.65927 7439 ft 241 kts 319°
2026-05-08 15:27 40.63549 -3.67118 8169 ft 247 kts 332°
2026-05-08 15:28 40.65250 -3.67711 8748 ft 264 kts 353°
2026-05-08 15:28 40.67152 -3.67442 9105 ft 288 kts 14°
2026-05-08 15:28 40.69174 -3.66803 9550 ft 307 kts
2026-05-08 15:28 40.71325 -3.66369 10211 ft 313 kts
2026-05-08 15:29 40.73517 -3.66113 10720 ft 329 kts
2026-05-08 15:29 40.75827 -3.66496 11003 ft 342 kts 336°
2026-05-08 15:29 40.77940 -3.67967 11510 ft 347 kts 321°
2026-05-08 15:29 40.79666 -3.70150 12333 ft 339 kts 303°
2026-05-08 15:30 40.80942 -3.72695 13220 ft 336 kts 297°
2026-05-08 15:30 40.82132 -3.75393 13885 ft 341 kts 295°
2026-05-08 15:30 40.83280 -3.78149 14536 ft 343 kts 294°
2026-05-08 15:30 40.84418 -3.80936 15212 ft 346 kts 294°
2026-05-08 15:31 40.85564 -3.83750 15877 ft 349 kts 294°
2026-05-08 15:31 40.86709 -3.86552 16517 ft 352 kts 294°
2026-05-08 15:31 40.87887 -3.89405 17188 ft 354 kts 294°
2026-05-08 15:31 40.89078 -3.92273 17847 ft 356 kts 293°
2026-05-08 15:32 40.90277 -3.95159 18449 ft 358 kts 293°
2026-05-08 15:32 40.91481 -3.98054 19021 ft 361 kts 293°
2026-05-08 15:32 40.92692 -4.00971 19605 ft 363 kts 292°
2026-05-08 15:32 40.93910 -4.03908 20198 ft 365 kts 292°
2026-05-08 15:33 40.95138 -4.06871 20774 ft 368 kts 292°
2026-05-08 15:33 40.96358 -4.09813 21323 ft 370 kts 292°
2026-05-08 15:33 40.97602 -4.12818 21877 ft 373 kts 292°
2026-05-08 15:33 40.98851 -4.15845 22442 ft 375 kts 292°
2026-05-08 15:34 41.00103 -4.18886 22993 ft 377 kts 291°
2026-05-08 15:34 41.01363 -4.21945 23501 ft 380 kts 291°
2026-05-08 15:34 41.02600 -4.25046 23946 ft 381 kts 290°
2026-05-08 15:34 41.03792 -4.28191 24374 ft 382 kts 289°
2026-05-08 15:35 41.04954 -4.31355 24792 ft 383 kts 289°
2026-05-08 15:35 41.06100 -4.34516 25210 ft 385 kts 289°
2026-05-08 15:35 41.07278 -4.37765 25608 ft 387 kts 289°
2026-05-08 15:35 41.08422 -4.40903 25991 ft 389 kts 289°
2026-05-08 15:36 41.09610 -4.44136 26364 ft 391 kts 289°
2026-05-08 15:36 41.10404 -4.46287 26619 ft 392 kts 289°
2026-05-08 15:36 41.12024 -4.50657 27130 ft 394 kts 289°
2026-05-08 15:36 41.13220 -4.53891 27498 ft 396 kts 289°
2026-05-08 15:37 41.14436 -4.57189 27861 ft 398 kts 289°
2026-05-08 15:37 41.15657 -4.60505 28194 ft 401 kts 289°
2026-05-08 15:37 41.16884 -4.63839 28525 ft 403 kts 289°
2026-05-08 15:37 41.18114 -4.67188 28881 ft 404 kts 289°
2026-05-08 15:38 41.19347 -4.70558 29225 ft 406 kts 289°
2026-05-08 15:38 41.20583 -4.73938 29552 ft 407 kts 289°
2026-05-08 15:38 41.21822 -4.77322 29833 ft 408 kts 289°
2026-05-08 15:38 41.23041 -4.80646 29894 ft 398 kts 289°
2026-05-08 15:39 41.24240 -4.83905 29886 ft 386 kts 288°
2026-05-08 15:39 41.25408 -4.87102 29897 ft 383 kts 288°
2026-05-08 15:39 41.27714 -4.93467 29895 ft 381 kts 288°
2026-05-08 15:40 41.30019 -4.99819 29894 ft 381 kts 288°
2026-05-08 15:40 41.32315 -5.06154 29896 ft 382 kts 288°
2026-05-08 15:41 41.34617 -5.12522 29894 ft 381 kts 288°
2026-05-08 15:41 41.36905 -5.18864 29884 ft 381 kts 288°
2026-05-08 15:42 41.39198 -5.25225 29876 ft 381 kts 288°
2026-05-08 15:42 41.41101 -5.30522 29878 ft 380 kts 288°
2026-05-08 15:43 41.43746 -5.37924 29897 ft 381 kts 288°
2026-05-08 15:43 41.45657 -5.43276 29874 ft 382 kts 288°
2026-05-08 15:44 41.47930 -5.49652 29871 ft 383 kts 288°
2026-05-08 15:44 41.50220 -5.56079 29868 ft 383 kts 288°
2026-05-08 15:45 41.52510 -5.62517 29867 ft 384 kts 288°
2026-05-08 15:45 41.53786 -5.65676 29864 ft 393 kts 299°
2026-05-08 15:45 41.55762 -5.68255 29871 ft 412 kts 319°
2026-05-08 15:46 41.58451 -5.69807 29869 ft 432 kts 342°
2026-05-08 15:46 41.61507 -5.69931 29862 ft 449 kts
2026-05-08 15:46 41.67603 -5.67689 29876 ft 453 kts
2026-05-08 15:47 41.70665 -5.67198 29865 ft 444 kts 353°
2026-05-08 15:47 41.73691 -5.67694 29869 ft 435 kts 343°
2026-05-08 15:47 41.79722 -5.68888 29866 ft 439 kts 347°
2026-05-08 15:48 41.88816 -5.70279 29888 ft 440 kts 347°
2026-05-08 15:49 41.94893 -5.71303 29903 ft 439 kts 347°
2026-05-08 15:49 42.00963 -5.72408 29892 ft 439 kts 347°
2026-05-08 15:50 42.06991 -5.73515 29897 ft 439 kts 347°
2026-05-08 15:50 42.13054 -5.74607 29894 ft 440 kts 347°
2026-05-08 15:51 42.19344 -5.75728 29358 ft 444 kts 347°
2026-05-08 15:51 42.22188 -5.76234 28715 ft 432 kts 347°
2026-05-08 15:51 42.25079 -5.76742 28263 ft 416 kts 347°
2026-05-08 15:51 42.27912 -5.77244 27815 ft 401 kts 347°
2026-05-08 15:52 42.30640 -5.77731 27402 ft 387 kts 347°
2026-05-08 15:52 42.33261 -5.78202 27007 ft 377 kts 347°
2026-05-08 15:52 42.35868 -5.78678 26609 ft 377 kts 347°
2026-05-08 15:52 42.38461 -5.79153 26218 ft 375 kts 347°
2026-05-08 15:53 42.41015 -5.79623 25829 ft 375 kts 347°
2026-05-08 15:53 42.43598 -5.80096 25417 ft 372 kts 348°
2026-05-08 15:53 42.46138 -5.80556 25197 ft 359 kts 348°
2026-05-08 15:53 42.48582 -5.80993 24787 ft 350 kts 348°
2026-05-08 15:54 42.50930 -5.81415 24364 ft 342 kts 348°
2026-05-08 15:54 42.53280 -5.81842 23832 ft 339 kts 348°
2026-05-08 15:54 42.55608 -5.82265 23411 ft 336 kts 349°
2026-05-08 15:54 42.57909 -5.82683 22976 ft 333 kts 349°
2026-05-08 15:55 42.60212 -5.83102 22574 ft 331 kts 349°
2026-05-08 15:55 42.64774 -5.83932 21779 ft 330 kts 349°
2026-05-08 15:55 42.67045 -5.84342 21384 ft 328 kts 349°
2026-05-08 15:56 42.69281 -5.84745 21000 ft 328 kts 349°
2026-05-08 15:56 42.71536 -5.85154 20605 ft 327 kts 349°
2026-05-08 15:56 42.73789 -5.85567 20218 ft 327 kts 349°
2026-05-08 15:56 42.76043 -5.85982 19920 ft 323 kts 349°
2026-05-08 15:57 42.78254 -5.86385 19467 ft 318 kts 349°
2026-05-08 15:57 42.80424 -5.86781 19090 ft 318 kts 350°
2026-05-08 15:57 42.82623 -5.87184 18702 ft 319 kts 350°
2026-05-08 15:57 42.84831 -5.87591 18354 ft 319 kts 350°
2026-05-08 15:58 42.87010 -5.87988 18044 ft 317 kts 351°
2026-05-08 15:58 42.89226 -5.88373 17535 ft 321 kts 351°
2026-05-08 15:58 42.91416 -5.88741 17194 ft 314 kts 351°
2026-05-08 15:58 42.93573 -5.89102 16791 ft 310 kts 352°
2026-05-08 15:59 42.95703 -5.89457 16420 ft 307 kts 352°
2026-05-08 15:59 42.97825 -5.89810 16067 ft 306 kts 351°
2026-05-08 15:59 42.99912 -5.90159 15722 ft 305 kts 351°
2026-05-08 15:59 43.02026 -5.90513 15365 ft 306 kts 351°
2026-05-08 16:00 43.04154 -5.90756 15106 ft 306 kts
2026-05-08 16:00 43.06247 -5.90449 14913 ft 300 kts 13°
2026-05-08 16:00 43.08220 -5.89575 14620 ft 297 kts 26°
2026-05-08 16:00 43.10029 -5.88230 14360 ft 295 kts 31°
2026-05-08 16:01 43.11807 -5.86830 14103 ft 293 kts 31°
2026-05-08 16:01 43.13573 -5.85447 13832 ft 292 kts 31°
2026-05-08 16:01 43.15310 -5.84087 13583 ft 290 kts 31°
2026-05-08 16:01 43.17066 -5.82713 13261 ft 289 kts 31°
2026-05-08 16:02 43.18810 -5.81348 12970 ft 288 kts 31°
2026-05-08 16:02 43.20560 -5.79975 12454 ft 296 kts 31°
2026-05-08 16:02 43.22399 -5.78530 11656 ft 313 kts 31°
2026-05-08 16:02 43.24306 -5.77037 11207 ft 315 kts 30°
2026-05-08 16:03 43.26250 -5.75632 10821 ft 316 kts 22°
2026-05-08 16:03 43.28329 -5.74647 10418 ft 316 kts 18°
2026-05-08 16:03 43.30409 -5.73703 10037 ft 314 kts 18°
2026-05-08 16:03 43.32457 -5.72772 9618 ft 313 kts 18°
2026-05-08 16:04 43.34527 -5.71825 9196 ft 312 kts 18°
2026-05-08 16:04 43.36584 -5.70878 8763 ft 311 kts 19°
2026-05-08 16:04 43.38631 -5.69933 8350 ft 309 kts 18°
2026-05-08 16:04 43.40672 -5.68995 7949 ft 307 kts 19°
2026-05-08 16:05 43.42670 -5.68080 7853 ft 298 kts 19°
2026-05-08 16:05 43.44619 -5.67190 7864 ft 298 kts 18°
2026-05-08 16:05 43.46587 -5.66291 7865 ft 298 kts 18°
2026-05-08 16:05 43.48561 -5.65385 7611 ft 302 kts 19°
2026-05-08 16:06 43.50563 -5.64460 7031 ft 301 kts 18°
2026-05-08 16:06 43.52526 -5.63548 6877 ft 293 kts 20°
2026-05-08 16:06 43.54282 -5.62178 6865 ft 290 kts 44°
2026-05-08 16:06 43.55464 -5.59954 6869 ft 286 kts 70°
2026-05-08 16:07 43.55862 -5.57315 6871 ft 281 kts 95°
2026-05-08 16:07 43.55516 -5.54724 6833 ft 277 kts 109°
2026-05-08 16:07 43.54952 -5.52177 6763 ft 277 kts 111°
2026-05-08 16:07 43.54289 -5.49691 6682 ft 274 kts 121°
2026-05-08 16:08 43.53124 -5.47664 6617 ft 268 kts 142°
2026-05-08 16:08 43.51564 -5.46365 6534 ft 264 kts 161°
2026-05-08 16:08 43.49777 -5.45871 6473 ft 261 kts 180°
2026-05-08 16:08 43.47996 -5.46254 6398 ft 259 kts 199°
2026-05-08 16:09 43.46430 -5.47461 6327 ft 260 kts 218°
2026-05-08 16:09 43.45602 -5.48655 6268 ft 262 kts 232°
2026-05-08 16:09 43.44646 -5.51751 6141 ft 268 kts 258°
2026-05-08 16:09 43.44681 -5.54324 6025 ft 273 kts 277°
2026-05-08 16:10 43.45153 -5.56822 6009 ft 275 kts 285°
2026-05-08 16:10 43.45777 -5.59316 6014 ft 276 kts 285°
2026-05-08 16:10 43.46399 -5.61821 6014 ft 276 kts 285°
2026-05-08 16:10 43.47005 -5.64332 5962 ft 278 kts 285°
2026-05-08 16:11 43.47608 -5.66842 5658 ft 274 kts 286°
2026-05-08 16:11 43.48206 -5.69328 5304 ft 273 kts 286°
2026-05-08 16:11 43.48802 -5.71804 4946 ft 271 kts 287°
2026-05-08 16:11 43.49392 -5.74262 4586 ft 269 kts 287°
2026-05-08 16:12 43.49977 -5.76696 4230 ft 266 kts 287°
2026-05-08 16:12 43.50547 -5.79075 3870 ft 254 kts 287°
2026-05-08 16:12 43.51083 -5.81310 3549 ft 243 kts 287°
2026-05-08 16:12 43.51602 -5.83480 3231 ft 233 kts 287°
2026-05-08 16:13 43.52099 -5.85562 2926 ft 223 kts 288°
2026-05-08 16:13 43.52574 -5.87552 2648 ft 213 kts 288°
2026-05-08 16:13 43.53020 -5.89424 2381 ft 199 kts 289°
2026-05-08 16:13 43.53429 -5.91141 2097 ft 185 kts 289°
2026-05-08 16:14 43.53806 -5.92729 1882 ft 165 kts 290°
2026-05-08 16:14 43.54146 -5.94157 1667 ft 150 kts 290°
2026-05-08 16:14 43.54464 -5.95492 1465 ft 144 kts 290°
2026-05-08 16:14 43.54775 -5.96797 1273 ft 143 kts 290°
2026-05-08 16:15 43.55083 -5.98091 1069 ft 141 kts 289°
2026-05-08 16:15 43.55390 -5.99380 857 ft 141 kts 289°
2026-05-08 16:15 43.55695 -6.00646 686 ft 141 kts 289°
2026-05-08 16:15 43.55998 -6.01927 513 ft 140 kts 288°
2026-05-08 16:16 43.56288 -6.03179 433 ft 128 kts 288°
2026-05-08 16:16 43.56514 -6.04117 414 ft 56 kts 288°
2026-05-08 16:16 43.56622 -6.04575 419 ft 47 kts 288°
2026-05-08 16:16 43.56637 -6.04744 420 ft 7 kts 206°
2026-05-08 16:17 43.56550 -6.04730 420 ft 17 kts 154°
2026-05-08 16:17 43.56484 -6.04663 420 ft 19 kts 131°
2026-05-08 16:17 43.56419 -6.04420 418 ft 25 kts 108°
2026-05-08 16:17 43.56359 -6.04171 419 ft 29 kts 107°
2026-05-08 16:18 43.56296 -6.03902 412 ft 30 kts 108°
2026-05-08 16:18 43.56232 -6.03632 419 ft 30 kts 108°
2026-05-08 16:18 43.56168 -6.03361 427 ft 30 kts 108°
2026-05-08 16:18 43.56077 -6.03228 426 ft 17 kts 182°
2026-05-08 16:19 43.56016 -6.03266 423 ft 6 kts 242°
2026-05-08 16:19 43.56015 -6.03269 424 ft 0 kts 244°